GW0819 Weather Reports


Display with metric or nautical units.
time (UTC)temp
F
wind
direction
speed
MPH
gust
MPH
rain 1hr
in
rain 24hr
in
rain mn
in
humidity
%
barometer
mb
20260906095124 73 254 4.0 4.0 0.00 0.00 0.00 62 1014.2
20260906094622 73 248 3.0 3.0 0.00 0.00 0.00 60 1014.2
20260906094119 73 221 1.0 2.0 0.00 0.00 0.00 60 1014.3
20260906093614 73 210 2.0 2.0 0.00 0.00 0.00 60 1014.3
20260906093108 73 217 0.0 0.0 0.00 0.00 0.00 60 1014.2
20260906092603 73 203 1.0 1.0 0.00 0.00 0.00 60 1014.3
20260906092059 73 194 1.0 2.0 0.00 0.00 0.00 60 1014.3
20260906091554 73 196 2.0 2.0 0.00 0.00 0.00 60 1014.3
20260906091051 73 230 1.0 2.0 0.00 0.00 0.00 60 1014.2
20260906090551 73 203 3.0 4.0 0.00 0.00 0.00 60 1014.3
20260906090046 73 224 3.0 3.0 0.00 0.00 0.00 60 1014.2
20260906085545 73 205 2.0 3.0 0.00 0.00 0.00 60 1014.2
20260906085044 73 201 2.0 2.0 0.00 0.00 0.00 60 1014.3
20260906084539 73 200 2.0 2.0 0.00 0.00 0.00 60 1014.0
20260906084038 73 236 2.0 2.0 0.00 0.00 0.00 60 1014.2
20260906083534 74 195 0.0 1.0 0.00 0.00 0.00 59 1014.3
20260906083034 74 126 1.0 2.0 0.00 0.00 0.00 59 1014.5
20260906082528 74 120 2.0 2.0 0.00 0.00 0.00 58 1014.6
20260906082024 74 104 1.0 2.0 0.00 0.00 0.00 58 1014.5
20260906081520 75 122 2.0 2.0 0.00 0.00 0.00 57 1014.5
20260906081015 75 134 3.0 4.0 0.00 0.00 0.00 57 1014.5
20260906080512 75 154 2.0 3.0 0.00 0.00 0.00 57 1014.3
20260906080008 75 209 1.0 2.0 0.00 0.00 0.00 57 1014.5
20260906075502 74 225 1.0 2.0 0.00 0.00 0.00 57 1014.8
20260906074956 74 172 1.0 3.0 0.00 0.00 0.00 56 1014.8
20260906074451 75 215 3.0 3.0 0.00 0.00 0.00 56 1014.5
20260906073949 75 226 4.0 5.0 0.00 0.00 0.00 55 1014.5
20260906073444 75 230 4.0 5.0 0.00 0.00 0.00 55 1014.3
20260906072941 75 227 3.0 5.0 0.00 0.00 0.00 55 1014.5
20260906072436 76 240 6.0 6.0 0.00 0.00 0.00 54 1014.5
20260906071932 76 211 7.0 7.0 0.00 0.00 0.00 54 1014.5
20260906071427 76 200 5.0 7.0 0.00 0.00 0.00 54 1014.3
20260906070923 76 193 5.0 6.0 0.00 0.00 0.00 54 1014.7
20260906070419 76 162 5.0 5.0 0.00 0.00 0.00 54 1014.3
20260906065914 76 142 7.0 8.0 0.00 0.00 0.00 54 1014.5
20260906065409 76 137 6.0 7.0 0.00 0.00 0.00 54 1014.6
20260906064904 76 131 6.0 7.0 0.00 0.00 0.00 54 1014.6
20260906064400 76 133 5.0 7.0 0.00 0.00 0.00 54 1014.7
20260906063854 77 130 7.0 7.0 0.00 0.00 0.00 55 1014.7
20260906063350 77 156 5.0 6.0 0.00 0.00 0.00 54 1014.9
20260906062845 77 158 5.0 5.0 0.00 0.00 0.00 53 1015.0
20260906062344 77 155 4.0 5.0 0.00 0.00 0.00 53 1014.9
20260906061840 77 150 4.0 6.0 0.00 0.00 0.00 53 1015.3
20260906061336 77 154 5.0 7.0 0.00 0.00 0.00 52 1015.3
20260906060831 77 156 5.0 5.0 0.00 0.00 0.00 52 1015.3
20260906060329 78 131 4.0 6.0 0.00 0.00 0.00 51 1015.1
20260906055824 78 117 5.0 5.0 0.00 0.00 0.00 51 1014.9
20260906055320 78 115 4.0 6.0 0.00 0.00 0.00 51 1015.0
20260906054815 78 105 6.0 7.0 0.00 0.00 0.00 51 1015.1
20260906054310 78 102 6.0 8.0 0.00 0.00 0.00 51 1015.3
20260906053806 78 113 5.0 7.0 0.00 0.00 0.00 50 1015.5
20260906053302 78 115 6.0 6.0 0.00 0.00 0.00 50 1015.4
20260906052756 79 112 5.0 6.0 0.00 0.00 0.00 50 1015.3
20260906052253 79 109 5.0 6.0 0.00 0.00 0.00 49 1015.1
20260906051750 79 123 4.0 5.0 0.00 0.00 0.00 49 1015.3
20260906051249 80 124 5.0 7.0 0.00 0.00 0.00 47 1015.3
20260906050744 80 129 4.0 6.0 0.00 0.00 0.00 47 1015.1
20260906050240 81 127 7.0 8.0 0.00 0.00 0.00 46 1015.4
20260906045738 81 128 5.0 7.0 0.00 0.00 0.00 45 1015.5
20260906045233 81 159 4.0 6.0 0.00 0.00 0.00 44 1015.3
20260906044728 82 159 3.0 6.0 0.00 0.00 0.00 44 1015.5
20260906044223 82 168 7.0 8.0 0.00 0.00 0.00 44 1015.5
20260906043720 82 174 5.0 5.0 0.00 0.00 0.00 44 1015.4
20260906043215 82 158 5.0 6.0 0.00 0.00 0.00 44 1015.4
20260906042715 82 168 6.0 10.0 0.00 0.00 0.00 43 1015.3
20260906042209 82 140 8.0 9.0 0.00 0.00 0.00 44 1015.0
20260906041704 82 219 8.0 11.0 0.00 0.00 0.00 44 1015.5
20260906041159 82 162 5.0 5.0 0.00 0.00 0.00 43 1015.3
20260906040654 82 179 7.0 7.0 0.00 0.00 0.00 43 1014.9
20260906040150 82 183 7.0 9.0 0.00 0.00 0.00 43 1015.0
20260906035645 82 191 7.0 9.0 0.00 0.00 0.00 43 1015.3
20260906035141 83 199 8.0 8.0 0.00 0.00 0.00 42 1014.8
20260906034635 83 191 6.0 8.0 0.00 0.00 0.00 41 1014.8
20260906034130 83 178 5.0 8.0 0.00 0.00 0.00 41 1014.8
20260906033625 84 157 8.0 9.0 0.00 0.00 0.00 40 1014.8
20260906033120 84 168 7.0 10.0 0.00 0.00 0.00 39 1014.9
20260906032617 84 188 6.0 10.0 0.00 0.00 0.00 39 1014.7
20260906032116 84 173 8.0 10.0 0.00 0.00 0.00 39 1014.5
20260906031612 84 174 7.0 8.0 0.00 0.00 0.00 40 1014.5
20260906031108 84 167 8.0 11.0 0.00 0.00 0.00 40 1014.2
20260906030606 84 174 10.0 11.0 0.00 0.00 0.00 41 1014.5
20260906030101 83 183 6.0 9.0 0.00 0.00 0.00 41 1014.2
20260906025555 84 193 6.0 9.0 0.00 0.00 0.00 41 1013.8
20260906025054 84 201 8.0 9.0 0.00 0.00 0.00 41 1013.6
20260906024549 84 191 5.0 9.0 0.00 0.00 0.00 40 1013.6
20260906024049 84 195 7.0 9.0 0.00 0.00 0.00 40 1013.6
20260906023546 84 173 6.0 11.0 0.00 0.00 0.00 40 1013.4
20260906023040 84 169 7.0 9.0 0.00 0.00 0.00 40 1013.2
20260906022535 84 200 8.0 11.0 0.00 0.00 0.00 38 1013.0
20260906022031 84 208 8.0 10.0 0.00 0.00 0.00 38 1013.1
20260906021526 85 198 8.0 9.0 0.00 0.00 0.00 38 1012.8
20260906021020 84 200 6.0 7.0 0.00 0.00 0.00 38 1013.1
20260906020519 85 201 7.0 8.0 0.00 0.00 0.00 37 1012.9
20260906020019 85 180 4.0 6.0 0.00 0.00 0.00 38 1012.8
20260906015518 84 166 5.0 5.0 0.00 0.00 0.00 38 1013.0
20260906015018 84 178 5.0 7.0 0.00 0.00 0.00 38 1012.8
20260906014513 85 182 5.0 6.0 0.00 0.00 0.00 37 1012.6
20260906014009 85 206 5.0 7.0 0.00 0.00 0.00 37 1012.6
20260906013504 85 187 5.0 7.0 0.00 0.00 0.00 38 1012.5
20260906013000 86 194 6.0 9.0 0.00 0.00 0.00 37 1012.3
20260906012454 86 222 9.0 11.0 0.00 0.00 0.00 36 1012.5
20260906011954 86 202 9.0 11.0 0.00 0.00 0.00 37 1012.6
20260906011449 86 216 8.0 12.0 0.00 0.00 0.00 36 1012.4
20260906010944 86 224 10.0 11.0 0.00 0.00 0.00 36 1012.6
20260906010440 86 237 7.0 10.0 0.00 0.00 0.00 35 1012.4
20260906005936 86 217 9.0 15.0 0.00 0.00 0.00 35 1012.6
20260906005436 87 231 12.0 16.0 0.00 0.00 0.00 35 1012.5
20260906004934 87 206 10.0 13.0 0.00 0.00 0.00 33 1012.5
20260906004428 87 201 11.0 17.0 0.00 0.00 0.00 34 1012.4
20260906003925 87 207 11.0 15.0 0.00 0.00 0.00 35 1012.3
20260906003419 87 194 14.0 18.0 0.00 0.00 0.00 34 1012.5
20260906002915 88 181 12.0 21.0 0.00 0.00 0.00 33 1012.5
20260906002414 88 193 16.0 19.0 0.00 0.00 0.00 33 1012.5
20260906001909 89 174 16.0 17.0 0.00 0.00 0.00 32 1012.1
20260906001405 88 163 9.0 20.0 0.00 0.00 0.00 32 1012.4
20260906000905 89 163 19.0 21.0 0.00 0.00 0.00 31 1012.2
20260906000403 91 178 7.0 16.0 0.00 0.00 0.00 28 1012.2
20260905235855 90 165 13.0 17.0 0.00 0.00 0.00 30 1012.2
20260905235349 90 182 14.0 19.0 0.00 0.00 0.00 31 1012.0
20260905234845 89 163 19.0 21.0 0.00 0.00 0.00 33 1012.2
20260905234340 90 154 17.0 21.0 0.00 0.00 0.00 34 1012.0
20260905233835 89 157 17.0 20.0 0.00 0.00 0.00 34 1012.0
20260905233330 91 161 16.0 22.0 0.00 0.00 0.00 31 1012.1
20260905232829 91 174 22.0 27.0 0.00 0.00 0.00 30 1012.0
20260905232325 92 160 20.0 23.0 0.00 0.00 0.00 29 1012.1
20260905231821 92 164 21.0 22.0 0.00 0.00 0.00 27 1011.6
20260905231316 91 161 15.0 22.0 0.00 0.00 0.00 29 1012.0
20260905230812 92 164 17.0 22.0 0.00 0.00 0.00 29 1011.6
20260905230310 92 155 16.0 24.0 0.00 0.00 0.00 28 1012.1
20260905225809 93 155 11.0 17.0 0.00 0.00 0.00 29 1011.5
20260905225306 92 159 16.0 22.0 0.00 0.00 0.00 31 1011.6
20260905224804 93 146 18.0 23.0 0.00 0.00 0.00 30 1011.6
20260905224300 94 160 13.0 20.0 0.00 0.00 0.00 28 1011.5
20260905223755 95 163 17.0 17.0 0.00 0.00 0.00 28 1011.5
20260905223252 94 172 11.0 17.0 0.00 0.00 0.00 27 1011.6
20260905222747 94 154 14.0 17.0 0.00 0.00 0.00 28 1011.6
20260905222246 93 160 12.0 20.0 0.00 0.00 0.00 28 1011.6
20260905221742 93 135 17.0 24.0 0.00 0.00 0.00 28 1011.7
20260905221239 95 165 13.0 18.0 0.00 0.00 0.00 27 1011.7
20260905220735 94 153 15.0 20.0 0.00 0.00 0.00 28 1011.7
20260905220231 93 141 12.0 20.0 0.00 0.00 0.00 30 1011.6
20260905215730 94 160 13.0 23.0 0.00 0.00 0.00 30 1012.0
20260905215226 94 144 10.0 19.0 0.00 0.00 0.00 29 1011.8
20260905214721 92 165 13.0 15.0 0.00 0.00 0.00 30 1012.1
20260905214217 93 150 12.0 20.0 0.00 0.00 0.00 30 1012.3
20260905213712 93 163 15.0 19.0 0.00 0.00 0.00 30 1012.0
20260905213208 93 144 8.0 13.0 0.00 0.00 0.00 29 1012.2
20260905212703 92 152 11.0 13.0 0.00 0.00 0.00 29 1011.8
20260905212202 93 175 7.0 17.0 0.00 0.00 0.00 29 1012.0
20260905211657 93 133 21.0 23.0 0.00 0.00 0.00 29 1012.0
20260905211152 93 136 9.0 10.0 0.00 0.00 0.00 28 1012.1
20260905210649 93 150 11.0 15.0 0.00 0.00 0.00 28 1012.4
20260905210149 95 182 13.0 16.0 0.00 0.00 0.00 26 1012.5
20260905205648 97 141 8.0 12.0 0.00 0.00 0.00 26 1012.6
20260905205147 95 82 2.0 4.0 0.00 0.00 0.00 27 1012.2
20260905204646 95 94 7.0 8.0 0.00 0.00 0.00 27 1012.6
20260905204142 95 117 9.0 11.0 0.00 0.00 0.00 27 1012.6
20260905203637 95 151 10.0 15.0 0.00 0.00 0.00 26 1012.5
20260905203132 95 146 10.0 18.0 0.00 0.00 0.00 27 1012.6
20260905202628 96 130 11.0 17.0 0.00 0.00 0.00 26 1012.6
20260905202123 95 148 11.0 17.0 0.00 0.00 0.00 27 1012.8
20260905201618 97 168 8.0 14.0 0.00 0.00 0.00 25 1012.9
20260905201118 95 173 4.0 5.0 0.00 0.00 0.00 26 1012.9
20260905200614 95 131 10.0 12.0 0.00 0.00 0.00 27 1013.2
20260905200109 93 247 4.0 6.0 0.00 0.00 0.00 28 1012.9
20260905195601 93 209 8.0 11.0 0.00 0.00 0.00 28 1013.4
20260905195057 95 162 11.0 12.0 0.00 0.00 0.00 27 1013.4
20260905194557 95 191 16.0 17.0 0.00 0.00 0.00 26 1013.3
20260905194056 95 174 4.0 12.0 0.00 0.00 0.00 26 1013.3
20260905193551 93 182 4.0 10.0 0.00 0.00 0.00 28 1013.4
20260905193046 93 193 8.0 11.0 0.00 0.00 0.00 28 1013.3
20260905192542 95 228 10.0 15.0 0.00 0.00 0.00 27 1013.7
20260905192038 95 196 9.0 10.0 0.00 0.00 0.00 27 1013.8
20260905191536 94 210 5.0 12.0 0.00 0.00 0.00 28 1013.8
20260905191036 93 231 3.0 10.0 0.00 0.00 0.00 27 1014.0
20260905190533 94 210 9.0 13.0 0.00 0.00 0.00 27 1013.9
20260905190028 93 232 14.0 14.0 0.00 0.00 0.00 26 1014.0
20260905185527 94 120 9.0 12.0 0.00 0.00 0.00 28 1013.9
20260905185026 92 148 8.0 13.0 0.00 0.00 0.00 29 1014.0
20260905184521 92 247 9.0 12.0 0.00 0.00 0.00 30 1014.1
20260905184019 93 141 12.0 13.0 0.00 0.00 0.00 27 1014.1
20260905183514 95 224 6.0 13.0 0.00 0.00 0.00 28 1014.5
20260905183009 93 78 2.0 6.0 0.00 0.00 0.00 30 1014.1
20260905182509 93 153 5.0 10.0 0.00 0.00 0.00 30 1014.3
20260905182003 92 185 9.0 13.0 0.00 0.00 0.00 30 1014.3
20260905181459 93 244 10.0 11.0 0.00 0.00 0.00 30 1014.2
20260905180957 94 207 10.0 33.0 0.00 0.00 0.00 30 1014.3
20260905180452 92 269 7.0 8.0 0.00 0.00 0.00 31 1014.5
20260905175947 92 205 5.0 12.0 0.00 0.00 0.00 32 1014.5
20260905175447 92 324 3.0 5.0 0.00 0.00 0.00 31 1014.7
20260905174943 92 230 6.0 8.0 0.00 0.00 0.00 31 1014.5
20260905174437 91 301 2.0 10.0 0.00 0.00 0.00 32 1014.9
20260905173933 91 259 6.0 15.0 0.00 0.00 0.00 32 1014.7
20260905173430 91 278 7.0 9.0 0.00 0.00 0.00 33 1015.3
20260905172925 91 240 5.0 9.0 0.00 0.00 0.00 33 1014.9
20260905172422 90 262 9.0 11.0 0.00 0.00 0.00 32 1014.9
20260905171919 90 205 5.0 12.0 0.00 0.00 0.00 33 1015.0
20260905171415 90 239 7.0 11.0 0.00 0.00 0.00 33 1014.9
20260905170911 90 204 8.0 11.0 0.00 0.00 0.00 34 1014.9
20260905170407 89 247 7.0 12.0 0.00 0.00 0.00 35 1014.9
20260905165906 89 237 8.0 12.0 0.00 0.00 0.00 35 1014.7
20260905165401 89 240 8.0 11.0 0.00 0.00 0.00 35 1014.9
20260905164856 88 236 9.0 12.0 0.00 0.00 0.00 36 1014.9
20260905164351 88 254 10.0 14.0 0.00 0.00 0.00 36 1014.9
20260905163846 88 230 7.0 14.0 0.00 0.00 0.00 36 1014.7
20260905163343 88 252 10.0 15.0 0.00 0.00 0.00 36 1015.4
20260905162839 89 233 13.0 13.0 0.00 0.00 0.00 35 1014.9
20260905162338 88 238 5.0 7.0 0.00 0.00 0.00 37 1014.8
20260905161833 87 229 9.0 10.0 0.00 0.00 0.00 38 1014.9
20260905161332 86 245 5.0 13.0 0.00 0.00 0.00 39 1014.9
20260905160830 85 236 5.0 13.0 0.00 0.00 0.00 40 1015.0
20260905160325 86 226 10.0 13.0 0.00 0.00 0.00 39 1015.1
20260905155819 86 229 10.0 11.0 0.00 0.00 0.00 40 1015.0
20260905155313 86 242 7.0 11.0 0.00 0.00 0.00 40 1014.8
20260905154807 84 269 5.0 10.0 0.00 0.00 0.00 43 1014.7
20260905154302 84 219 6.0 10.0 0.00 0.00 0.00 43 1014.6
20260905153752 83 256 8.0 11.0 0.00 0.00 0.00 45 1014.9
20260905153248 83 242 5.0 12.0 0.00 0.00 0.00 46 1014.8
20260905152743 83 256 5.0 11.0 0.00 0.00 0.00 47 1014.8
20260905152237 82 221 9.0 13.0 0.00 0.00 0.00 47 1014.9
20260905151736 82 239 7.0 12.0 0.00 0.00 0.00 49 1014.8
20260905151233 81 234 9.0 11.0 0.00 0.00 0.00 50 1014.8
20260905150732 80 231 7.0 12.0 0.00 0.00 0.00 53 1014.5
20260905150232 80 238 7.0 14.0 0.00 0.00 0.00 52 1014.8
20260905145729 79 223 8.0 11.0 0.00 0.00 0.00 53 1014.7
20260905145224 78 222 10.0 12.0 0.00 0.00 0.00 56 1014.9
20260905144723 78 207 8.0 12.0 0.00 0.00 0.00 57 1014.8
20260905144218 78 224 11.0 12.0 0.00 0.00 0.00 57 1014.9
20260905143717 77 212 8.0 11.0 0.00 0.00 0.00 59 1015.0
20260905143217 77 220 10.0 13.0 0.00 0.00 0.00 59 1015.1
20260905142716 77 218 9.0 12.0 0.00 0.00 0.00 60 1015.1
20260905142211 77 230 12.0 15.0 0.00 0.00 0.00 60 1014.7
20260905141706 76 221 10.0 14.0 0.00 0.00 0.00 62 1014.7
20260905141202 76 207 12.0 14.0 0.00 0.00 0.00 61 1014.7
20260905140657 75 212 10.0 14.0 0.00 0.00 0.00 62 1014.9
20260905140151 76 191 10.0 13.0 0.00 0.00 0.00 61 1015.0
20260905135646 75 205 13.0 13.0 0.00 0.00 0.00 60 1015.0
20260905135141 75 205 10.0 14.0 0.00 0.00 0.00 61 1014.8
20260905134636 74 215 10.0 13.0 0.00 0.00 0.00 62 1014.6
20260905134135 74 212 10.0 11.0 0.00 0.00 0.00 63 1014.6
20260905133631 73 217 10.0 13.0 0.00 0.00 0.00 64 1014.7
20260905133130 73 203 8.0 10.0 0.00 0.00 0.00 65 1014.8
20260905132624 73 208 7.0 9.0 0.00 0.00 0.00 67 1014.7
20260905132119 72 197 8.0 9.0 0.00 0.00 0.00 69 1014.6
20260905131614 72 201 6.0 9.0 0.00 0.00 0.00 70 1014.6
20260905131110 71 208 6.0 9.0 0.00 0.00 0.00 71 1014.6
20260905130609 71 206 8.0 9.0 0.00 0.00 0.00 72 1014.2
20260905130104 71 196 9.0 10.0 0.00 0.00 0.00 73 1014.2
20260905125603 70 200 7.0 9.0 0.00 0.00 0.00 73 1014.1
20260905125059 70 190 8.0 9.0 0.00 0.00 0.00 74 1013.9
20260905124555 70 193 7.0 7.0 0.00 0.00 0.00 74 1013.9
20260905124051 70 198 6.0 9.0 0.00 0.00 0.00 74 1014.0
20260905123546 70 195 7.0 8.0 0.00 0.00 0.00 74 1014.2
20260905123043 70 199 7.0 9.0 0.00 0.00 0.00 73 1014.1
20260905122542 70 196 8.0 10.0 0.00 0.00 0.00 73 1014.2
20260905122037 70 181 7.0 8.0 0.00 0.00 0.00 73 1014.0
20260905121532 70 192 6.0 7.0 0.00 0.00 0.00 73 1013.8
20260905121027 70 188 7.0 8.0 0.00 0.00 0.00 72 1013.9
20260905120526 71 197 7.0 9.0 0.00 0.00 0.00 72 1013.9
20260905120022 71 195 6.0 9.0 0.00 0.00 0.00 72 1013.7
20260905115520 71 181 6.0 9.0 0.00 0.00 0.00 71 1013.8
20260905115016 71 176 5.0 8.0 0.00 0.00 0.00 71 1013.9
20260905114515 71 184 9.0 9.0 0.00 0.00 0.00 71 1013.9
20260905114014 71 175 6.0 8.0 0.00 0.00 0.00 71 1013.7
20260905113509 71 181 5.0 8.0 0.00 0.00 0.00 71 1014.0
20260905113005 71 185 6.0 9.0 0.00 0.00 0.00 70 1013.8
20260905112500 71 201 6.0 9.0 0.00 0.00 0.00 70 1013.7
20260905111955 71 199 8.0 9.0 0.00 0.00 0.00 69 1013.7
20260905111449 71 202 7.0 12.0 0.00 0.00 0.00 69 1014.0
20260905110943 71 194 6.0 7.0 0.00 0.00 0.00 69 1013.7
20260905110443 71 187 6.0 8.0 0.00 0.00 0.00 68 1013.9
20260905105937 71 177 5.0 6.0 0.00 0.00 0.00 68 1013.8
20260905105432 71 180 3.0 4.0 0.00 0.00 0.00 68 1014.0
20260905104931 71 164 4.0 4.0 0.00 0.00 0.00 67 1013.7
20260905104427 71 164 7.0 7.0 0.00 0.00 0.00 67 1013.9
20260905103921 72 170 6.0 10.0 0.00 0.00 0.00 66 1014.1
20260905103412 72 167 8.0 9.0 0.00 0.00 0.00 66 1013.7
20260905102908 72 163 9.0 10.0 0.00 0.00 0.00 65 1013.9
20260905102404 72 151 8.0 9.0 0.00 0.00 0.00 65 1013.7
20260905101904 73 154 10.0 10.0 0.00 0.00 0.00 64 1013.6
20260905101402 73 162 9.0 10.0 0.00 0.00 0.00 64 1013.7
20260905100857 73 156 8.0 9.0 0.00 0.00 0.00 63 1014.0
20260905100353 73 180 8.0 11.0 0.00 0.00 0.00 63 1013.8
20260905095852 74 180 7.0 9.0 0.00 0.00 0.00 63 1013.7